Tracking 23762 objects as of 20-Oct-2021
HD Live streaming from Space Station
objects crossing your sky now

BREEZE-M R/B

Track BREEZE-M R/B now!


NORAD ID: 39488
Int'l Code: 2013-077B
Perigee: 36,704.2 km
Apogee: 41,476.1 km
Inclination: 6.1 °
Period: 1,607.8 minutes
Semi major axis: 45461 km
RCS: Unknown
Launch date: December 26, 2013
Source: Commonwealth of Independent States (former USSR) (CIS)
Launch site: TYURATAM MISSILE AND SPACE COMPLEX (TTMTR)

Note: This is a ROCKET BODY
aabbcc
Your satellite tracking list
Your tracking list is empty




NASA's NSSDC Master Catalog

Two Line Element Set (TLE):
1 39488U 13077B   21292.52536325 -.00000180  00000-0  00000-0 0  9997
2 39488   6.0519  70.9409 0524829 147.5941 215.8545  0.89565809 25439
Source of the keplerian elements: AFSPC